SL-16 DEB, 22347

Orbit data source: Space-Track

SL-16 DEB, 22347 is space debris in LEO originally from a launch on Fri, 25 Dec 1992 UTC launched from the Tyuratam Missile And Space Complex (TTMTR). Debris objects in space refer to the collection of defunct objects orbiting the Earth. Examples of debris include non-operational satellites, rocket bodies, and fragments generated from explosions, collisions, or faulty payload assembly.

Loading next visibility...
Identifier
22347, 1992-093AL
Orbit
LEO
Country
Flag of CISCIS
Related business
Manufacturer
Unknown
Mission
Spacecraft
Bus & Motor
Unknown
Mass
Unknown
Launch date (UTC)
1992-12-25 (33 years ago)
Launch vehicle
Unknown
Launch site
Tyuratam Missile And Space Complex (TTMTR)
Object type
Payload
Rocket body
Debris
Shape & HBR
Unknown shape, 0.1 m
Radar Cross Section
Small (<0.1 m²)

Expand to show TLE details & history
Last TLE update: 18 hours ago

TLE from 18 hours ago
0 SL-16 DEB
1 22347U 92093AL  25298.15598588  .00005590  00000-0  30906-2 0  9995
2 22347  70.8371 212.7216 0158285   7.4292  61.9005 14.05611030657099
Epoch: 2025-10-25T03:44Z
TLE epoch observation values (Epoch: 2025-10-25T03:44:37.180Z)
Latitude
63.33725°
Longitude
166.27986°
Altitude
832.121 km
Speed
7.47 km/s
True Right ascension
17h 04m 54s
True Declination
63° 12' 02"
Sunlit
Object was in daylight at epoch
Visualization orbit readout
Latitude
Unknown
Longitude
Unknown
Altitude
Unknown
Speed
Unknown
Apparent Right ascension
Unknown
Apparent Declination
Unknown
Sunlit
N/A
Visualization observer readout
Local Sidereal Time
16:53:12
Azimuth
Unknown
Elevation
Unknown
Doppler factor
Unknown
Orbital elements
Apogee altitude
987.144 km
Perigee altitude
757.614 km
Semi-major axis
7,250.516 km
Eccentricity
0.01583
Inclination
70.8371°
RAAN
212.7216°
Arg. of periapsis
7.4292°
True anomaly
63.51535°
Mean anomaly
61.9005°
Eccentric anomaly
62.70644°
Mean motion
3.51552 °/min
Orbital period
102.4 mins
BSTAR
0.0030906
Loading maneuver chart data...
Computing Atmospheric mass density...
Loading historical data...
Loading historical data...
Loading historical data...
Loading historical data...
Loading historical data...
Loading historical data...
Loading historical data...

Documentation

Showing up to 5 results
|